owner,sensor,date,latitude,longitude,vertical_datum,sea_water_practical_salinity,qcFlag 
ENP,ioos.station.NOAA.NDBC:LMRF1:1,2018-07-01T00:00:00Z,25.5560,-81.1690,1.5,12.62,1111122 
ENP,ioos.station.NOAA.NDBC:LMRF1:1,2018-07-01T01:00:00Z,25.5560,-81.1690,1.5,11.78,1111122 
ENP,ioos.station.NOAA.NDBC:LMRF1:1,2018-07-01T02:00:00Z,25.5560,-81.1690,1.5,11.19,1111122 
ENP,ioos.station.NOAA.NDBC:LMRF1:1,2018-07-01T03:00:00Z,25.5560,-81.1690,1.5,10.42,1111122 
ENP,ioos.station.NOAA.NDBC:LMRF1:1,2018-07-01T05:00:00Z,25.5560,-81.1690,1.5,8.7,11111222 
ENP,ioos.station.NOAA.NDBC:LMRF1:1,2018-07-01T06:00:00Z,25.5560,-81.1690,1.5,8.32,1111122 
ENP,ioos.station.NOAA.NDBC:LMRF1:1,2018-07-01T07:00:00Z,25.5560,-81.1690,1.5,7.92,1111122 
ENP,ioos.station.NOAA.NDBC:LMRF1:1,2018-07-01T08:00:00Z,25.5560,-81.1690,1.5,7.89,1111122 
ENP,ioos.station.NOAA.NDBC:LMRF1:1,2018-07-01T09:00:00Z,25.5560,-81.1690,1.5,8.58,1111122 
ENP,ioos.station.NOAA.NDBC:LMRF1:1,2018-07-01T10:00:00Z,25.5560,-81.1690,1.5,10.04,1111122 
ENP,ioos.station.NOAA.NDBC:LMRF1:1,2018-07-01T11:00:00Z,25.5560,-81.1690,1.5,11.06,1111122 
ENP,ioos.station.NOAA.NDBC:LMRF1:1,2018-07-01T12:00:00Z,25.5560,-81.1690,1.5,11.45,1111122 
ENP,ioos.station.NOAA.NDBC:LMRF1:1,2018-07-01T13:00:00Z,25.5560,-81.1690,1.5,9.65,1111122 
ENP,ioos.station.NOAA.NDBC:LMRF1:1,2018-07-01T14:00:00Z,25.5560,-81.1690,1.5,9.27,1111122 
ENP,ioos.station.NOAA.NDBC:LMRF1:1,2018-07-01T15:00:00Z,25.5560,-81.1690,1.5,8.77,1111122 
ENP,ioos.station.NOAA.NDBC:LMRF1:1,2018-07-01T16:00:00Z,25.5560,-81.1690,1.5,8.27,1111122 
ENP,ioos.station.NOAA.NDBC:LMRF1:1,2018-07-01T17:00:00Z,25.5560,-81.1690,1.5,8.06,1111122 
ENP,ioos.station.NOAA.NDBC:LMRF1:1,2018-07-01T18:00:00Z,25.5560,-81.1690,1.5,8.04,1111122 
ENP,ioos.station.NOAA.NDBC:LMRF1:1,2018-07-01T19:00:00Z,25.5560,-81.1690,1.5,8.37,1111122 
ENP,ioos.station.NOAA.NDBC:LMRF1:1,2018-07-01T20:00:00Z,25.5560,-81.1690,1.5,12.43,1111122 
ENP,ioos.station.NOAA.NDBC:LMRF1:1,2018-07-01T21:00:00Z,25.5560,-81.1690,1.5,16.47,1111122 
ENP,ioos.station.NOAA.NDBC:LMRF1:1,2018-07-01T22:00:00Z,25.5560,-81.1690,1.5,18.22,1111122 
ENP,ioos.station.NOAA.NDBC:LMRF1:1,2018-07-01T23:00:00Z,25.5560,-81.1690,1.5,16.33,1111122 
ENP,ioos.station.NOAA.NDBC:LMRF1:1,2018-07-02T00:00:00Z,25.5560,-81.1690,1.5,13.47,1111122 
ENP,ioos.station.NOAA.NDBC:LMRF1:1,2018-07-02T01:00:00Z,25.5560,-81.1690,1.5,11.0,1111122 
ENP,ioos.station.NOAA.NDBC:LMRF1:1,2018-07-02T02:00:00Z,25.5560,-81.1690,1.5,10.61,1111122 
ENP,ioos.station.NOAA.NDBC:LMRF1:1,2018-07-02T03:00:00Z,25.5560,-81.1690,1.5,10.16,1111122 
ENP,ioos.station.NOAA.NDBC:LMRF1:1,2018-07-02T05:00:00Z,25.5560,-81.1690,1.5,8.5,11111222 
ENP,ioos.station.NOAA.NDBC:LMRF1:1,2018-07-02T06:00:00Z,25.5560,-81.1690,1.5,7.9,1111122 
ENP,ioos.station.NOAA.NDBC:LMRF1:1,2018-07-02T07:00:00Z,25.5560,-81.1690,1.5,7.58,1111122 
ENP,ioos.station.NOAA.NDBC:LMRF1:1,2018-07-02T08:00:00Z,25.5560,-81.1690,1.5,7.36,1111122 
ENP,ioos.station.NOAA.NDBC:LMRF1:1,2018-07-02T09:00:00Z,25.5560,-81.1690,1.5,7.64,1111122 
ENP,ioos.station.NOAA.NDBC:LMRF1:1,2018-07-02T10:00:00Z,25.5560,-81.1690,1.5,8.83,1111122 
ENP,ioos.station.NOAA.NDBC:LMRF1:1,2018-07-02T11:00:00Z,25.5560,-81.1690,1.5,10.42,1111122 
ENP,ioos.station.NOAA.NDBC:LMRF1:1,2018-07-02T12:00:00Z,25.5560,-81.1690,1.5,11.65,1111122 
ENP,ioos.station.NOAA.NDBC:LMRF1:1,2018-07-02T13:00:00Z,25.5560,-81.1690,1.5,10.23,1111122 
ENP,ioos.station.NOAA.NDBC:LMRF1:1,2018-07-02T14:00:00Z,25.5560,-81.1690,1.5,9.27,1111122 
ENP,ioos.station.NOAA.NDBC:LMRF1:1,2018-07-02T15:00:00Z,25.5560,-81.1690,1.5,8.64,1111122 
ENP,ioos.station.NOAA.NDBC:LMRF1:1,2018-07-02T16:00:00Z,25.5560,-81.1690,1.5,8.06,1111122 
ENP,ioos.station.NOAA.NDBC:LMRF1:1,2018-07-02T17:00:00Z,25.5560,-81.1690,1.5,7.82,1111122 
ENP,ioos.station.NOAA.NDBC:LMRF1:1,2018-07-02T18:00:00Z,25.5560,-81.1690,1.5,7.69,1111122 
ENP,ioos.station.NOAA.NDBC:LMRF1:1,2018-07-02T19:00:00Z,25.5560,-81.1690,1.5,7.7,1111122 
ENP,ioos.station.NOAA.NDBC:LMRF1:1,2018-07-02T20:00:00Z,25.5560,-81.1690,1.5,8.19,1111122 
ENP,ioos.station.NOAA.NDBC:LMRF1:1,2018-07-02T21:00:00Z,25.5560,-81.1690,1.5,13.28,1111122 
ENP,ioos.station.NOAA.NDBC:LMRF1:1,2018-07-02T22:00:00Z,25.5560,-81.1690,1.5,16.67,1111122 
ENP,ioos.station.NOAA.NDBC:LMRF1:1,2018-07-02T23:00:00Z,25.5560,-81.1690,1.5,17.54,1111122 
ENP,ioos.station.NOAA.NDBC:LMRF1:1,2018-07-03T00:00:00Z,25.5560,-81.1690,1.5,14.33,1111122 
ENP,ioos.station.NOAA.NDBC:LMRF1:1,2018-07-03T01:00:00Z,25.5560,-81.1690,1.5,11.91,1111122 
ENP,ioos.station.NOAA.NDBC:LMRF1:1,2018-07-03T02:00:00Z,25.5560,-81.1690,1.5,9.59,1111122 
ENP,ioos.station.NOAA.NDBC:LMRF1:1,2018-07-03T03:00:00Z,25.5560,-81.1690,1.5,9.72,1111122 
ENP,ioos.station.NOAA.NDBC:LMRF1:1,2018-07-03T05:00:00Z,25.5560,-81.1690,1.5,8.5,11111222 
ENP,ioos.station.NOAA.NDBC:LMRF1:1,2018-07-03T06:00:00Z,25.5560,-81.1690,1.5,7.62,1111122 
ENP,ioos.station.NOAA.NDBC:LMRF1:1,2018-07-03T07:00:00Z,25.5560,-81.1690,1.5,7.26,1111122 
ENP,ioos.station.NOAA.NDBC:LMRF1:1,2018-07-03T08:00:00Z,25.5560,-81.1690,1.5,7.08,1111122 
ENP,ioos.station.NOAA.NDBC:LMRF1:1,2018-07-03T09:00:00Z,25.5560,-81.1690,1.5,7.13,1111122 
ENP,ioos.station.NOAA.NDBC:LMRF1:1,2018-07-03T10:00:00Z,25.5560,-81.1690,1.5,7.59,1111122 
ENP,ioos.station.NOAA.NDBC:LMRF1:1,2018-07-03T11:00:00Z,25.5560,-81.1690,1.5,8.83,1111122 
ENP,ioos.station.NOAA.NDBC:LMRF1:1,2018-07-03T12:00:00Z,25.5560,-81.1690,1.5,10.87,1111122 
ENP,ioos.station.NOAA.NDBC:LMRF1:1,2018-07-03T13:00:00Z,25.5560,-81.1690,1.5,11.97,1111122 
ENP,ioos.station.NOAA.NDBC:LMRF1:1,2018-07-03T14:00:00Z,25.5560,-81.1690,1.5,9.59,1111122 
ENP,ioos.station.NOAA.NDBC:LMRF1:1,2018-07-03T15:00:00Z,25.5560,-81.1690,1.5,8.64,1111122 
ENP,ioos.station.NOAA.NDBC:LMRF1:1,2018-07-03T16:00:00Z,25.5560,-81.1690,1.5,8.17,1111122 
ENP,ioos.station.NOAA.NDBC:LMRF1:1,2018-07-03T17:00:00Z,25.5560,-81.1690,1.5,7.6,1111122 
ENP,ioos.station.NOAA.NDBC:LMRF1:1,2018-07-03T18:00:00Z,25.5560,-81.1690,1.5,7.36,1111122 
ENP,ioos.station.NOAA.NDBC:LMRF1:1,2018-07-03T19:00:00Z,25.5560,-81.1690,1.5,7.13,1111122 
ENP,ioos.station.NOAA.NDBC:LMRF1:1,2018-07-03T20:00:00Z,25.5560,-81.1690,1.5,7.13,1111122 
ENP,ioos.station.NOAA.NDBC:LMRF1:1,2018-07-03T21:00:00Z,25.5560,-81.1690,1.5,7.5,1111122 
ENP,ioos.station.NOAA.NDBC:LMRF1:1,2018-07-03T22:00:00Z,25.5560,-81.1690,1.5,11.0,1111122 
ENP,ioos.station.NOAA.NDBC:LMRF1:1,2018-07-03T23:00:00Z,25.5560,-81.1690,1.5,15.46,1111122 
ENP,ioos.station.NOAA.NDBC:LMRF1:1,2018-07-04T00:00:00Z,25.5560,-81.1690,1.5,16.6,1111122 
ENP,ioos.station.NOAA.NDBC:LMRF1:1,2018-07-04T01:00:00Z,25.5560,-81.1690,1.5,12.1,1111122 
ENP,ioos.station.NOAA.NDBC:LMRF1:1,2018-07-04T02:00:00Z,25.5560,-81.1690,1.5,10.36,1111122 
ENP,ioos.station.NOAA.NDBC:LMRF1:1,2018-07-04T03:00:00Z,25.5560,-81.1690,1.5,8.7,1111122 
ENP,ioos.station.NOAA.NDBC:LMRF1:1,2018-07-04T05:00:00Z,25.5560,-81.1690,1.5,8.2,11111222 
ENP,ioos.station.NOAA.NDBC:LMRF1:1,2018-07-04T06:00:00Z,25.5560,-81.1690,1.5,7.44,1111122 
ENP,ioos.station.NOAA.NDBC:LMRF1:1,2018-07-04T07:00:00Z,25.5560,-81.1690,1.5,6.95,1111122 
ENP,ioos.station.NOAA.NDBC:LMRF1:1,2018-07-04T08:00:00Z,25.5560,-81.1690,1.5,6.71,1111122 
ENP,ioos.station.NOAA.NDBC:LMRF1:1,2018-07-04T09:00:00Z,25.5560,-81.1690,1.5,6.27,1111122 
ENP,ioos.station.NOAA.NDBC:LMRF1:1,2018-07-04T10:00:00Z,25.5560,-81.1690,1.5,6.42,1111122 
ENP,ioos.station.NOAA.NDBC:LMRF1:1,2018-07-04T11:00:00Z,25.5560,-81.1690,1.5,7.16,1111122 
ENP,ioos.station.NOAA.NDBC:LMRF1:1,2018-07-04T12:00:00Z,25.5560,-81.1690,1.5,9.27,1111122 
ENP,ioos.station.NOAA.NDBC:LMRF1:1,2018-07-04T13:00:00Z,25.5560,-81.1690,1.5,12.17,1111122 
ENP,ioos.station.NOAA.NDBC:LMRF1:1,2018-07-04T14:00:00Z,25.5560,-81.1690,1.5,11.84,1111122 
ENP,ioos.station.NOAA.NDBC:LMRF1:1,2018-07-04T15:00:00Z,25.5560,-81.1690,1.5,9.53,1111122 
ENP,ioos.station.NOAA.NDBC:LMRF1:1,2018-07-04T16:00:00Z,25.5560,-81.1690,1.5,8.45,1111122 
ENP,ioos.station.NOAA.NDBC:LMRF1:1,2018-07-04T17:00:00Z,25.5560,-81.1690,1.5,7.9,1111122 
ENP,ioos.station.NOAA.NDBC:LMRF1:1,2018-07-04T18:00:00Z,25.5560,-81.1690,1.5,7.33,1111122 
ENP,ioos.station.NOAA.NDBC:LMRF1:1,2018-07-04T19:00:00Z,25.5560,-81.1690,1.5,7.13,1111122 
ENP,ioos.station.NOAA.NDBC:LMRF1:1,2018-07-04T20:00:00Z,25.5560,-81.1690,1.5,7.0,1111122 
ENP,ioos.station.NOAA.NDBC:LMRF1:1,2018-07-04T21:00:00Z,25.5560,-81.1690,1.5,7.03,1111122 
ENP,ioos.station.NOAA.NDBC:LMRF1:1,2018-07-04T22:00:00Z,25.5560,-81.1690,1.5,7.95,1111122 
ENP,ioos.station.NOAA.NDBC:LMRF1:1,2018-07-04T23:00:00Z,25.5560,-81.1690,1.5,11.7,11111222 
ENP,ioos.station.NOAA.NDBC:LMRF1:1,2018-07-05T00:00:00Z,25.5560,-81.1690,1.5,14.86,1111122 
ENP,ioos.station.NOAA.NDBC:LMRF1:1,2018-07-05T01:00:00Z,25.5560,-81.1690,1.5,16.06,1111122 
ENP,ioos.station.NOAA.NDBC:LMRF1:1,2018-07-05T02:00:00Z,25.5560,-81.1690,1.5,11.58,1111122 
ENP,ioos.station.NOAA.NDBC:LMRF1:1,2018-07-05T03:00:00Z,25.5560,-81.1690,1.5,9.34,1111122 
ENP,ioos.station.NOAA.NDBC:LMRF1:1,2018-07-05T05:00:00Z,25.5560,-81.1690,1.5,8.0,11111222 
ENP,ioos.station.NOAA.NDBC:LMRF1:1,2018-07-05T06:00:00Z,25.5560,-81.1690,1.5,7.6,1111122 
ENP,ioos.station.NOAA.NDBC:LMRF1:1,2018-07-05T07:00:00Z,25.5560,-81.1690,1.5,6.94,1111122 
ENP,ioos.station.NOAA.NDBC:LMRF1:1,2018-07-05T08:00:00Z,25.5560,-81.1690,1.5,6.64,1111122 
ENP,ioos.station.NOAA.NDBC:LMRF1:1,2018-07-05T09:00:00Z,25.5560,-81.1690,1.5,6.26,1111122 
ENP,ioos.station.NOAA.NDBC:LMRF1:1,2018-07-05T10:00:00Z,25.5560,-81.1690,1.5,6.15,1111122 
ENP,ioos.station.NOAA.NDBC:LMRF1:1,2018-07-05T11:00:00Z,25.5560,-81.1690,1.5,6.37,1111122 
ENP,ioos.station.NOAA.NDBC:LMRF1:1,2018-07-05T12:00:00Z,25.5560,-81.1690,1.5,7.41,1111122 
ENP,ioos.station.NOAA.NDBC:LMRF1:1,2018-07-05T13:00:00Z,25.5560,-81.1690,1.5,10.04,1111122 
ENP,ioos.station.NOAA.NDBC:LMRF1:1,2018-07-05T14:00:00Z,25.5560,-81.1690,1.5,11.58,1111122 
ENP,ioos.station.NOAA.NDBC:LMRF1:1,2018-07-05T15:00:00Z,25.5560,-81.1690,1.5,8.7,1111122 
ENP,ioos.station.NOAA.NDBC:LMRF1:1,2018-07-05T16:00:00Z,25.5560,-81.1690,1.5,7.76,1111122 
ENP,ioos.station.NOAA.NDBC:LMRF1:1,2018-07-05T17:00:00Z,25.5560,-81.1690,1.5,7.25,1111122 
ENP,ioos.station.NOAA.NDBC:LMRF1:1,2018-07-05T18:00:00Z,25.5560,-81.1690,1.5,6.62,1111122 
ENP,ioos.station.NOAA.NDBC:LMRF1:1,2018-07-05T19:00:00Z,25.5560,-81.1690,1.5,6.33,1111122 
ENP,ioos.station.NOAA.NDBC:LMRF1:1,2018-07-05T20:00:00Z,25.5560,-81.1690,1.5,6.08,1111122 
ENP,ioos.station.NOAA.NDBC:LMRF1:1,2018-07-05T21:00:00Z,25.5560,-81.1690,1.5,5.93,1111122 
ENP,ioos.station.NOAA.NDBC:LMRF1:1,2018-07-05T22:00:00Z,25.5560,-81.1690,1.5,5.75,1111122 
ENP,ioos.station.NOAA.NDBC:LMRF1:1,2018-07-05T23:00:00Z,25.5560,-81.1690,1.5,5.78,1111122 
ENP,ioos.station.NOAA.NDBC:LMRF1:1,2018-07-06T00:00:00Z,25.5560,-81.1690,1.5,5.95,1111122 
ENP,ioos.station.NOAA.NDBC:LMRF1:1,2018-07-06T01:00:00Z,25.5560,-81.1690,1.5,6.4,1111122 
ENP,ioos.station.NOAA.NDBC:LMRF1:1,2018-07-06T02:00:00Z,25.5560,-81.1690,1.5,7.13,1111122 
ENP,ioos.station.NOAA.NDBC:LMRF1:1,2018-07-06T03:00:00Z,25.5560,-81.1690,1.5,6.64,1111122 
ENP,ioos.station.NOAA.NDBC:LMRF1:1,2018-07-06T05:00:00Z,25.5560,-81.1690,1.5,6.0,11111222 
ENP,ioos.station.NOAA.NDBC:LMRF1:1,2018-07-06T06:00:00Z,25.5560,-81.1690,1.5,5.7,1111122 
ENP,ioos.station.NOAA.NDBC:LMRF1:1,2018-07-06T07:00:00Z,25.5560,-81.1690,1.5,5.66,1111122 
ENP,ioos.station.NOAA.NDBC:LMRF1:1,2018-07-06T08:00:00Z,25.5560,-81.1690,1.5,5.55,1111122 
ENP,ioos.station.NOAA.NDBC:LMRF1:1,2018-07-06T09:00:00Z,25.5560,-81.1690,1.5,5.43,1111122 
ENP,ioos.station.NOAA.NDBC:LMRF1:1,2018-07-06T10:00:00Z,25.5560,-81.1690,1.5,5.2,1111122 
ENP,ioos.station.NOAA.NDBC:LMRF1:1,2018-07-06T11:00:00Z,25.5560,-81.1690,1.5,5.23,1111122 
ENP,ioos.station.NOAA.NDBC:LMRF1:1,2018-07-06T12:00:00Z,25.5560,-81.1690,1.5,5.41,1111122 
ENP,ioos.station.NOAA.NDBC:LMRF1:1,2018-07-06T13:00:00Z,25.5560,-81.1690,1.5,7.24,1111122 
ENP,ioos.station.NOAA.NDBC:LMRF1:1,2018-07-06T14:00:00Z,25.5560,-81.1690,1.5,9.72,1111122 
ENP,ioos.station.NOAA.NDBC:LMRF1:1,2018-07-06T15:00:00Z,25.5560,-81.1690,1.5,10.74,1111122 
ENP,ioos.station.NOAA.NDBC:LMRF1:1,2018-07-06T16:00:00Z,25.5560,-81.1690,1.5,7.0,1111122 
ENP,ioos.station.NOAA.NDBC:LMRF1:1,2018-07-06T17:00:00Z,25.5560,-81.1690,1.5,6.3,11111222 
ENP,ioos.station.NOAA.NDBC:LMRF1:1,2018-07-06T18:00:00Z,25.5560,-81.1690,1.5,5.97,1111122 
ENP,ioos.station.NOAA.NDBC:LMRF1:1,2018-07-06T19:00:00Z,25.5560,-81.1690,1.5,5.49,1111122 
ENP,ioos.station.NOAA.NDBC:LMRF1:1,2018-07-06T20:00:00Z,25.5560,-81.1690,1.5,5.31,1111122 
ENP,ioos.station.NOAA.NDBC:LMRF1:1,2018-07-06T21:00:00Z,25.5560,-81.1690,1.5,5.2,1111122 
ENP,ioos.station.NOAA.NDBC:LMRF1:1,2018-07-06T22:00:00Z,25.5560,-81.1690,1.5,5.11,1111122 
ENP,ioos.station.NOAA.NDBC:LMRF1:1,2018-07-06T23:00:00Z,25.5560,-81.1690,1.5,5.02,1111122 
ENP,ioos.station.NOAA.NDBC:LMRF1:1,2018-07-07T00:00:00Z,25.5560,-81.1690,1.5,5.41,1111122 
ENP,ioos.station.NOAA.NDBC:LMRF1:1,2018-07-07T01:00:00Z,25.5560,-81.1690,1.5,7.24,1111122 
ENP,ioos.station.NOAA.NDBC:LMRF1:1,2018-07-07T02:00:00Z,25.5560,-81.1690,1.5,9.65,1111122 
ENP,ioos.station.NOAA.NDBC:LMRF1:1,2018-07-07T03:00:00Z,25.5560,-81.1690,1.5,11.26,1111122 
ENP,ioos.station.NOAA.NDBC:LMRF1:1,2018-07-07T05:00:00Z,25.5560,-81.1690,1.5,7.02,1111122 
ENP,ioos.station.NOAA.NDBC:LMRF1:1,2018-07-07T06:00:00Z,25.5560,-81.1690,1.5,6.6,11111222 
ENP,ioos.station.NOAA.NDBC:LMRF1:1,2018-07-07T07:00:00Z,25.5560,-81.1690,1.5,6.14,1111122 
ENP,ioos.station.NOAA.NDBC:LMRF1:1,2018-07-07T08:00:00Z,25.5560,-81.1690,1.5,5.6,1111122 
ENP,ioos.station.NOAA.NDBC:LMRF1:1,2018-07-07T09:00:00Z,25.5560,-81.1690,1.5,5.38,1111122 
ENP,ioos.station.NOAA.NDBC:LMRF1:1,2018-07-07T10:00:00Z,25.5560,-81.1690,1.5,5.23,1111122 
ENP,ioos.station.NOAA.NDBC:LMRF1:1,2018-07-07T11:00:00Z,25.5560,-81.1690,1.5,5.02,1111122 
ENP,ioos.station.NOAA.NDBC:LMRF1:1,2018-07-07T12:00:00Z,25.5560,-81.1690,1.5,5.39,1111122 
ENP,ioos.station.NOAA.NDBC:LMRF1:1,2018-07-07T13:00:00Z,25.5560,-81.1690,1.5,8.58,1111122 
ENP,ioos.station.NOAA.NDBC:LMRF1:1,2018-07-07T14:00:00Z,25.5560,-81.1690,1.5,15.66,1111122 
ENP,ioos.station.NOAA.NDBC:LMRF1:1,2018-07-07T15:00:00Z,25.5560,-81.1690,1.5,18.36,1111122 
ENP,ioos.station.NOAA.NDBC:LMRF1:1,2018-07-07T16:00:00Z,25.5560,-81.1690,1.5,19.11,1111122 
ENP,ioos.station.NOAA.NDBC:LMRF1:1,2018-07-07T17:00:00Z,25.5560,-81.1690,1.5,12.04,1111122 
ENP,ioos.station.NOAA.NDBC:LMRF1:1,2018-07-07T18:00:00Z,25.5560,-81.1690,1.5,10.04,1111122 
ENP,ioos.station.NOAA.NDBC:LMRF1:1,2018-07-07T19:00:00Z,25.5560,-81.1690,1.5,9.02,1111122 
ENP,ioos.station.NOAA.NDBC:LMRF1:1,2018-07-07T20:00:00Z,25.5560,-81.1690,1.5,7.97,1111122 
ENP,ioos.station.NOAA.NDBC:LMRF1:1,2018-07-07T21:00:00Z,25.5560,-81.1690,1.5,7.47,1111122 
ENP,ioos.station.NOAA.NDBC:LMRF1:1,2018-07-07T22:00:00Z,25.5560,-81.1690,1.5,6.71,1111122 
ENP,ioos.station.NOAA.NDBC:LMRF1:1,2018-07-07T23:00:00Z,25.5560,-81.1690,1.5,6.27,1111122 
ENP,ioos.station.NOAA.NDBC:LMRF1:1,2018-07-08T00:00:00Z,25.5560,-81.1690,1.5,6.14,1111122 
ENP,ioos.station.NOAA.NDBC:LMRF1:1,2018-07-08T01:00:00Z,25.5560,-81.1690,1.5,6.32,1111122 
ENP,ioos.station.NOAA.NDBC:LMRF1:1,2018-07-08T02:00:00Z,25.5560,-81.1690,1.5,7.49,1111122 
ENP,ioos.station.NOAA.NDBC:LMRF1:1,2018-07-08T03:00:00Z,25.5560,-81.1690,1.5,9.72,1111122 
ENP,ioos.station.NOAA.NDBC:LMRF1:1,2018-07-08T05:00:00Z,25.5560,-81.1690,1.5,13.3,11111222 
ENP,ioos.station.NOAA.NDBC:LMRF1:1,2018-07-08T06:00:00Z,25.5560,-81.1690,1.5,9.21,1111122 
ENP,ioos.station.NOAA.NDBC:LMRF1:1,2018-07-08T07:00:00Z,25.5560,-81.1690,1.5,7.41,1111122 
ENP,ioos.station.NOAA.NDBC:LMRF1:1,2018-07-08T08:00:00Z,25.5560,-81.1690,1.5,7.42,1111122 
ENP,ioos.station.NOAA.NDBC:LMRF1:1,2018-07-08T09:00:00Z,25.5560,-81.1690,1.5,6.74,1111122 
ENP,ioos.station.NOAA.NDBC:LMRF1:1,2018-07-08T10:00:00Z,25.5560,-81.1690,1.5,6.42,1111122 
ENP,ioos.station.NOAA.NDBC:LMRF1:1,2018-07-08T11:00:00Z,25.5560,-81.1690,1.5,6.1,1111122 
ENP,ioos.station.NOAA.NDBC:LMRF1:1,2018-07-08T12:00:00Z,25.5560,-81.1690,1.5,5.98,1111122 
ENP,ioos.station.NOAA.NDBC:LMRF1:1,2018-07-08T13:00:00Z,25.5560,-81.1690,1.5,6.27,1111122 
ENP,ioos.station.NOAA.NDBC:LMRF1:1,2018-07-08T14:00:00Z,25.5560,-81.1690,1.5,7.76,1111122 
ENP,ioos.station.NOAA.NDBC:LMRF1:1,2018-07-08T15:00:00Z,25.5560,-81.1690,1.5,13.74,1111122 
ENP,ioos.station.NOAA.NDBC:LMRF1:1,2018-07-08T16:00:00Z,25.5560,-81.1690,1.5,16.26,1111122 
ENP,ioos.station.NOAA.NDBC:LMRF1:1,2018-07-08T17:00:00Z,25.5560,-81.1690,1.5,12.49,1111122 
ENP,ioos.station.NOAA.NDBC:LMRF1:1,2018-07-08T18:00:00Z,25.5560,-81.1690,1.5,10.55,1111122 
ENP,ioos.station.NOAA.NDBC:LMRF1:1,2018-07-08T19:00:00Z,25.5560,-81.1690,1.5,8.64,1111122 
ENP,ioos.station.NOAA.NDBC:LMRF1:1,2018-07-08T20:00:00Z,25.5560,-81.1690,1.5,7.41,1111122 
ENP,ioos.station.NOAA.NDBC:LMRF1:1,2018-07-08T21:00:00Z,25.5560,-81.1690,1.5,6.98,1111122 
ENP,ioos.station.NOAA.NDBC:LMRF1:1,2018-07-08T22:00:00Z,25.5560,-81.1690,1.5,6.39,1111122 
ENP,ioos.station.NOAA.NDBC:LMRF1:1,2018-07-08T23:00:00Z,25.5560,-81.1690,1.5,5.93,1111122 
ENP,ioos.station.NOAA.NDBC:LMRF1:1,2018-07-09T00:00:00Z,25.5560,-81.1690,1.5,5.66,1111122 
ENP,ioos.station.NOAA.NDBC:LMRF1:1,2018-07-09T01:00:00Z,25.5560,-81.1690,1.5,5.18,1111122 
ENP,ioos.station.NOAA.NDBC:LMRF1:1,2018-07-09T02:00:00Z,25.5560,-81.1690,1.5,5.18,1111122 
ENP,ioos.station.NOAA.NDBC:LMRF1:1,2018-07-09T03:00:00Z,25.5560,-81.1690,1.5,5.91,1111122 
ENP,ioos.station.NOAA.NDBC:LMRF1:1,2018-07-09T05:00:00Z,25.5560,-81.1690,1.5,10.9,11111222 
ENP,ioos.station.NOAA.NDBC:LMRF1:1,2018-07-09T06:00:00Z,25.5560,-81.1690,1.5,12.17,1111122 
ENP,ioos.station.NOAA.NDBC:LMRF1:1,2018-07-09T07:00:00Z,25.5560,-81.1690,1.5,8.45,1111122 
ENP,ioos.station.NOAA.NDBC:LMRF1:1,2018-07-09T08:00:00Z,25.5560,-81.1690,1.5,7.5,1111122 
ENP,ioos.station.NOAA.NDBC:LMRF1:1,2018-07-09T09:00:00Z,25.5560,-81.1690,1.5,6.77,1111122 
ENP,ioos.station.NOAA.NDBC:LMRF1:1,2018-07-09T10:00:00Z,25.5560,-81.1690,1.5,6.19,1111122 
ENP,ioos.station.NOAA.NDBC:LMRF1:1,2018-07-09T11:00:00Z,25.5560,-81.1690,1.5,6.0,1111122 
ENP,ioos.station.NOAA.NDBC:LMRF1:1,2018-07-09T12:00:00Z,25.5560,-81.1690,1.5,5.77,1111122 
ENP,ioos.station.NOAA.NDBC:LMRF1:1,2018-07-09T13:00:00Z,25.5560,-81.1690,1.5,5.69,1111122 
ENP,ioos.station.NOAA.NDBC:LMRF1:1,2018-07-09T14:00:00Z,25.5560,-81.1690,1.5,6.08,1111122 
ENP,ioos.station.NOAA.NDBC:LMRF1:1,2018-07-09T15:00:00Z,25.5560,-81.1690,1.5,10.1,1111122 
ENP,ioos.station.NOAA.NDBC:LMRF1:1,2018-07-09T16:00:00Z,25.5560,-81.1690,1.5,16.2,1111122 
ENP,ioos.station.NOAA.NDBC:LMRF1:1,2018-07-09T17:00:00Z,25.5560,-81.1690,1.5,18.76,1111122 
ENP,ioos.station.NOAA.NDBC:LMRF1:1,2018-07-09T18:00:00Z,25.5560,-81.1690,1.5,16.0,1111122 
ENP,ioos.station.NOAA.NDBC:LMRF1:1,2018-07-09T19:00:00Z,25.5560,-81.1690,1.5,12.69,1111122 
ENP,ioos.station.NOAA.NDBC:LMRF1:1,2018-07-09T20:00:00Z,25.5560,-81.1690,1.5,9.65,1111122 
ENP,ioos.station.NOAA.NDBC:LMRF1:1,2018-07-09T21:00:00Z,25.5560,-81.1690,1.5,8.7,1111122 
ENP,ioos.station.NOAA.NDBC:LMRF1:1,2018-07-09T22:00:00Z,25.5560,-81.1690,1.5,7.71,1111122 
ENP,ioos.station.NOAA.NDBC:LMRF1:1,2018-07-09T23:00:00Z,25.5560,-81.1690,1.5,6.86,1111122 
ENP,ioos.station.NOAA.NDBC:LMRF1:1,2018-07-10T00:00:00Z,25.5560,-81.1690,1.5,6.51,1111122 
ENP,ioos.station.NOAA.NDBC:LMRF1:1,2018-07-10T01:00:00Z,25.5560,-81.1690,1.5,6.19,1111122 
ENP,ioos.station.NOAA.NDBC:LMRF1:1,2018-07-10T02:00:00Z,25.5560,-81.1690,1.5,5.89,1111122 
ENP,ioos.station.NOAA.NDBC:LMRF1:1,2018-07-10T03:00:00Z,25.5560,-81.1690,1.5,5.87,1111122 
ENP,ioos.station.NOAA.NDBC:LMRF1:1,2018-07-10T05:00:00Z,25.5560,-81.1690,1.5,9.1,11111222 
ENP,ioos.station.NOAA.NDBC:LMRF1:1,2018-07-10T06:00:00Z,25.5560,-81.1690,1.5,13.74,1111122 
ENP,ioos.station.NOAA.NDBC:LMRF1:1,2018-07-10T07:00:00Z,25.5560,-81.1690,1.5,15.53,1111122 
ENP,ioos.station.NOAA.NDBC:LMRF1:1,2018-07-10T08:00:00Z,25.5560,-81.1690,1.5,10.81,1111122 
ENP,ioos.station.NOAA.NDBC:LMRF1:1,2018-07-10T09:00:00Z,25.5560,-81.1690,1.5,9.59,1111122 
ENP,ioos.station.NOAA.NDBC:LMRF1:1,2018-07-10T10:00:00Z,25.5560,-81.1690,1.5,7.82,1111122 
ENP,ioos.station.NOAA.NDBC:LMRF1:1,2018-07-10T11:00:00Z,25.5560,-81.1690,1.5,7.84,1111122 
ENP,ioos.station.NOAA.NDBC:LMRF1:1,2018-07-10T12:00:00Z,25.5560,-81.1690,1.5,7.19,1111122 
ENP,ioos.station.NOAA.NDBC:LMRF1:1,2018-07-10T13:00:00Z,25.5560,-81.1690,1.5,6.98,1111122 
ENP,ioos.station.NOAA.NDBC:LMRF1:1,2018-07-10T14:00:00Z,25.5560,-81.1690,1.5,7.22,1111122 
ENP,ioos.station.NOAA.NDBC:LMRF1:1,2018-07-10T15:00:00Z,25.5560,-81.1690,1.5,10.55,1111122 
ENP,ioos.station.NOAA.NDBC:LMRF1:1,2018-07-10T16:00:00Z,25.5560,-81.1690,1.5,16.67,1111122 
ENP,ioos.station.NOAA.NDBC:LMRF1:1,2018-07-10T17:00:00Z,25.5560,-81.1690,1.5,20.13,1111122 
ENP,ioos.station.NOAA.NDBC:LMRF1:1,2018-07-10T18:00:00Z,25.5560,-81.1690,1.5,22.06,1111122 
ENP,ioos.station.NOAA.NDBC:LMRF1:1,2018-07-10T19:00:00Z,25.5560,-81.1690,1.5,20.34,1111122 
ENP,ioos.station.NOAA.NDBC:LMRF1:1,2018-07-10T20:00:00Z,25.5560,-81.1690,1.5,17.07,1111122 
ENP,ioos.station.NOAA.NDBC:LMRF1:1,2018-07-10T21:00:00Z,25.5560,-81.1690,1.5,13.87,1111122 
ENP,ioos.station.NOAA.NDBC:LMRF1:1,2018-07-10T22:00:00Z,25.5560,-81.1690,1.5,12.82,1111122 
ENP,ioos.station.NOAA.NDBC:LMRF1:1,2018-07-10T23:00:00Z,25.5560,-81.1690,1.5,11.39,1111122 
ENP,ioos.station.NOAA.NDBC:LMRF1:1,2018-07-11T00:00:00Z,25.5560,-81.1690,1.5,9.65,1111122 
ENP,ioos.station.NOAA.NDBC:LMRF1:1,2018-07-11T01:00:00Z,25.5560,-81.1690,1.5,8.45,1111122 
ENP,ioos.station.NOAA.NDBC:LMRF1:1,2018-07-11T02:00:00Z,25.5560,-81.1690,1.5,8.1,1111122 
ENP,ioos.station.NOAA.NDBC:LMRF1:1,2018-07-11T03:00:00Z,25.5560,-81.1690,1.5,7.82,1111122 
ENP,ioos.station.NOAA.NDBC:LMRF1:1,2018-07-11T05:00:00Z,25.5560,-81.1690,1.5,8.8,11111222 
ENP,ioos.station.NOAA.NDBC:LMRF1:1,2018-07-11T06:00:00Z,25.5560,-81.1690,1.5,11.84,1111122 
ENP,ioos.station.NOAA.NDBC:LMRF1:1,2018-07-11T07:00:00Z,25.5560,-81.1690,1.5,15.13,1111122 
ENP,ioos.station.NOAA.NDBC:LMRF1:1,2018-07-11T08:00:00Z,25.5560,-81.1690,1.5,16.73,1111122 
ENP,ioos.station.NOAA.NDBC:LMRF1:1,2018-07-11T09:00:00Z,25.5560,-81.1690,1.5,12.3,1111122 
ENP,ioos.station.NOAA.NDBC:LMRF1:1,2018-07-11T10:00:00Z,25.5560,-81.1690,1.5,10.36,1111122 
ENP,ioos.station.NOAA.NDBC:LMRF1:1,2018-07-11T11:00:00Z,25.5560,-81.1690,1.5,9.53,1111122 
ENP,ioos.station.NOAA.NDBC:LMRF1:1,2018-07-11T12:00:00Z,25.5560,-81.1690,1.5,9.02,1111122 
ENP,ioos.station.NOAA.NDBC:LMRF1:1,2018-07-11T13:00:00Z,25.5560,-81.1690,1.5,8.51,1111122 
ENP,ioos.station.NOAA.NDBC:LMRF1:1,2018-07-11T14:00:00Z,25.5560,-81.1690,1.5,8.45,1111122 
ENP,ioos.station.NOAA.NDBC:LMRF1:1,2018-07-11T15:00:00Z,25.5560,-81.1690,1.5,8.96,1111122 
ENP,ioos.station.NOAA.NDBC:LMRF1:1,2018-07-11T16:00:00Z,25.5560,-81.1690,1.5,14.33,1111122 
ENP,ioos.station.NOAA.NDBC:LMRF1:1,2018-07-11T17:00:00Z,25.5560,-81.1690,1.5,19.8,11111222 
ENP,ioos.station.NOAA.NDBC:LMRF1:1,2018-07-11T18:00:00Z,25.5560,-81.1690,1.5,21.93,1111122 
ENP,ioos.station.NOAA.NDBC:LMRF1:1,2018-07-11T19:00:00Z,25.5560,-81.1690,1.5,23.25,1111122 
ENP,ioos.station.NOAA.NDBC:LMRF1:1,2018-07-11T20:00:00Z,25.5560,-81.1690,1.5,23.39,1111122 
ENP,ioos.station.NOAA.NDBC:LMRF1:1,2018-07-11T21:00:00Z,25.5560,-81.1690,1.5,20.54,1111122 
ENP,ioos.station.NOAA.NDBC:LMRF1:1,2018-07-11T22:00:00Z,25.5560,-81.1690,1.5,16.87,1111122 
ENP,ioos.station.NOAA.NDBC:LMRF1:1,2018-07-11T23:00:00Z,25.5560,-81.1690,1.5,15.86,1111122 
ENP,ioos.station.NOAA.NDBC:LMRF1:1,2018-07-12T00:00:00Z,25.5560,-81.1690,1.5,14.0,1111122 
ENP,ioos.station.NOAA.NDBC:LMRF1:1,2018-07-12T01:00:00Z,25.5560,-81.1690,1.5,11.91,1111122 
ENP,ioos.station.NOAA.NDBC:LMRF1:1,2018-07-12T02:00:00Z,25.5560,-81.1690,1.5,10.42,1111122 
ENP,ioos.station.NOAA.NDBC:LMRF1:1,2018-07-12T03:00:00Z,25.5560,-81.1690,1.5,9.46,1111122 
ENP,ioos.station.NOAA.NDBC:LMRF1:1,2018-07-12T05:00:00Z,25.5560,-81.1690,1.5,9.1,11111222 
ENP,ioos.station.NOAA.NDBC:LMRF1:1,2018-07-12T06:00:00Z,25.5560,-81.1690,1.5,10.23,1111122 
ENP,ioos.station.NOAA.NDBC:LMRF1:1,2018-07-12T07:00:00Z,25.5560,-81.1690,1.5,13.54,1111122 
ENP,ioos.station.NOAA.NDBC:LMRF1:1,2018-07-12T08:00:00Z,25.5560,-81.1690,1.5,16.6,1111122 
ENP,ioos.station.NOAA.NDBC:LMRF1:1,2018-07-12T09:00:00Z,25.5560,-81.1690,1.5,17.88,1111122 